{"data":{"norad_id":53824,"epoch":"2026-09-20T09:20:44.808000Z","epoch_age_seconds":93872,"freshness":"FRESH","line1":"1 53824U 22114G   26263.38940750  .00000622  00000+0  28736-4 0  9996","line2":"2 53824  53.1614 140.3659 0001148  95.8645 264.2489 15.35396932222268","mean_motion":15.35396932,"eccentricity":0.0001148,"inclination_deg":53.1614,"raan_deg":140.3659,"arg_perigee_deg":95.8645,"mean_anomaly_deg":264.2489,"bstar":2.8736e-5,"rev_number":22226,"period_min":93.786822807068,"perigee_km":458.95676312194,"apogee_km":460.52674008331,"semimajor_km":6837.8787516026,"source":"CELESTRAK","updated_at":"2026-09-21T09:00:32.998191Z"}}